This demonstration page uses our WeatherBlox Daily Observations layout. Learn more.

Left ArrowRight Arrow

Hourly Observations for October 23, 2015

Temp ( °F °C ) Dew Point ( °F °C ) Humidity (%) Winds ( mph kmh ) Pressure ( in mb ) Visibility ( mi km ) Precip ( " mm )
12:15 am 00:15 Clear 59 15 52 11 77 77 N N/A 30.18 1022 10 16 N/A
12:35 am 00:35 Clear 59 15 52 11 77 77 SW 3 6 30.15 1021 10 16 N/A
12:55 am 00:55 Partly Cloudy 59 15 52 11 77 77 W 3 6 30.15 1021 10 16 N/A
1:15 am 01:15 Partly Cloudy 59 15 52 11 77 77 N N/A 30.15 1021 10 16 N/A
1:35 am 01:35 Clear 59 15 52 11 77 77 N N/A 30.15 1021 10 16 N/A
1:55 am 01:55 Clear 57 14 52 11 82 82 W 3 6 30.15 1021 10 16 N/A
2:15 am 02:15 Clear 59 15 54 12 82 82 WNW 3 6 30.15 1021 10 16 N/A
2:35 am 02:35 Clear 59 15 54 12 82 82 NW 6 9 30.15 1021 10 16 N/A
2:55 am 02:55 Partly Cloudy 59 15 55 13 88 88 NW 3 6 30.18 1022 10 16 N/A
3:15 am 03:15 Clear 59 15 55 13 88 88 N 5 7 30.18 1022 10 16 N/A
3:35 am 03:35 Clear 61 16 57 14 88 88 N 3 6 30.18 1022 10 16 N/A
3:55 am 03:55 Clear 63 17 59 15 88 88 N 3 6 30.18 1022 10 16 N/A
4:15 am 04:15 Clear 63 17 57 14 83 83 N 8 13 30.18 1022 10 16 N/A
4:35 am 04:35 Mostly Cloudy 63 17 57 14 83 83 N 3 6 30.18 1022 10 16 N/A
4:55 am 04:55 Cloudy 61 16 57 14 88 88 N N/A 30.18 1022 10 16 N/A
5:15 am 05:15 Cloudy 61 16 57 14 88 88 N N/A 30.21 1023 10 16 N/A
5:35 am 05:35 Cloudy 61 16 57 14 88 88 N 5 7 30.21 1023 10 16 N/A
5:55 am 05:55 Cloudy 63 17 55 13 77 77 N 5 7 30.21 1023 10 16 N/A
6:15 am 06:15 Cloudy 61 16 55 13 83 83 N 3 6 30.21 1023 10 16 N/A
6:35 am 06:35 Cloudy 61 16 54 12 77 77 NNW 6 9 30.24 1024 10 16 N/A
6:55 am 06:55 Cloudy 61 16 52 11 72 72 NNW 9 15 30.24 1024 10 16 N/A
7:15 am 07:15 Cloudy 61 16 50 10 68 68 N 9 15 30.24 1024 10 16 N/A
7:35 am 07:35 Cloudy 61 16 50 10 68 68 N 7 11 30.24 1024 10 16 N/A
7:55 am 07:55 Partly Cloudy 59 15 50 10 72 72 N 8 13 30.24 1024 10 16 N/A
8:15 am 08:15 Sunny 59 15 50 10 72 72 N 7 11 30.27 1025 10 16 N/A
8:35 am 08:35 Sunny 59 15 50 10 72 72 N 7 11 30.27 1025 10 16 N/A
8:55 am 08:55 Sunny 59 15 50 10 72 72 N 8 13 30.27 1025 10 16 N/A
9:15 am 09:15 Sunny 59 15 50 10 72 72 N 9 15 30.27 1025 10 16 N/A
9:35 am 09:35 Sunny 61 16 50 10 68 68 N 9 15 30.27 1025 10 16 N/A
9:55 am 09:55 Sunny 61 16 50 10 68 68 N 9 15 30.27 1025 10 16 N/A
10:15 am 10:15 Sunny 61 16 48 9 63 63 N 9 15 30.30 1026 10 16 N/A
10:35 am 10:35 Sunny 63 17 46 8 56 56 N 6 9 30.30 1026 10 16 N/A
10:55 am 10:55 Sunny 63 17 46 8 56 56 N 8 13 30.30 1026 10 16 N/A
11:15 am 11:15 Sunny 64 18 45 7 49 49 N 5 7 30.27 1025 10 16 N/A
11:35 am 11:35 Sunny 64 18 46 8 52 52 N 9 15 30.27 1025 10 16 N/A
11:55 am 11:55 Sunny 64 18 46 8 52 52 NNE 6 9 30.27 1025 10 16 N/A
12:15 pm 12:15 Sunny 64 18 46 8 52 52 N 7 11 30.27 1025 10 16 N/A
12:35 pm 12:35 Sunny 64 18 46 8 52 52 N 3 6 30.27 1025 10 16 N/A
12:55 pm 12:55 Sunny 66 19 46 8 49 49 N 8 13 30.27 1025 10 16 N/A
1:15 pm 13:15 Sunny 66 19 45 7 46 46 N N/A 30.24 1024 10 16 N/A
1:35 pm 13:35 Sunny 68 20 46 8 46 46 NW 10 17 30.24 1024 10 16 N/A
1:55 pm 13:55 Sunny 68 20 45 7 43 43 NW 8 13 30.24 1024 10 16 N/A
2:15 pm 14:15 Sunny 68 20 43 6 40 40 N 5 7 30.21 1023 10 16 N/A
2:35 pm 14:35 Sunny 68 20 45 7 43 43 N 7 11 30.21 1023 10 16 N/A
2:55 pm 14:55 Sunny 68 20 43 6 40 40 NW 6 9 30.21 1023 10 16 N/A
3:15 pm 15:15 Sunny 68 20 43 6 40 40 NNW 7 11 30.21 1023 10 16 N/A
3:35 pm 15:35 Sunny 68 20 43 6 40 40 NNW 5 7 30.21 1023 10 16 N/A
3:55 pm 15:55 Sunny 68 20 43 6 40 40 N 3 6 30.21 1023 10 16 N/A
4:15 pm 16:15 Sunny 68 20 43 6 40 40 NW 6 9 30.21 1023 10 16 N/A
4:35 pm 16:35 Sunny 68 20 41 5 38 38 N 5 7 30.21 1023 10 16 N/A
4:55 pm 16:55 Sunny 68 20 43 6 40 40 N 7 11 30.24 1024 10 16 N/A
5:15 pm 17:15 Sunny 68 20 43 6 40 40 N 5 7 30.24 1024 10 16 N/A
5:35 pm 17:35 Sunny 64 18 43 6 46 46 NNW 5 7 30.24 1024 10 16 N/A
5:55 pm 17:55 Sunny 64 18 41 5 43 43 N N/A 30.24 1024 10 16 N/A
6:15 pm 18:15 Sunny 64 18 41 5 43 43 N 3 6 30.24 1024 10 16 N/A
6:35 pm 18:35 Clear 63 17 43 6 49 49 NE 5 7 30.24 1024 10 16 N/A
6:55 pm 18:55 Clear 61 16 43 6 52 52 NE 5 7 30.24 1024 10 16 N/A
7:15 pm 19:15 Clear 59 15 43 6 55 55 NE 6 9 30.27 1025 10 16 N/A
7:35 pm 19:35 Clear 59 15 43 6 55 55 NNE 3 6 30.27 1025 10 16 N/A
7:55 pm 19:55 Clear 59 15 41 5 51 51 NNE 3 6 30.27 1025 10 16 N/A
8:15 pm 20:15 Clear 57 14 41 5 55 55 N N/A 30.27 1025 10 16 N/A
8:35 pm 20:35 Clear 55 13 43 6 63 63 NNE 5 7 30.27 1025 10 16 N/A
8:55 pm 20:55 Clear 55 13 43 6 63 63 N 6 9 30.27 1025 10 16 N/A
9:15 pm 21:15 Clear 55 13 43 6 63 63 N N/A 30.30 1026 10 16 N/A
9:35 pm 21:35 Clear 54 12 41 5 63 63 N 6 9 30.33 1027 10 16 N/A
9:55 pm 21:55 Clear 50 10 41 5 71 71 N 5 7 30.33 1027 10 16 N/A
10:15 pm 22:15 Clear 52 11 41 5 67 67 N 5 7 30.33 1027 10 16 N/A
10:35 pm 22:35 Clear 52 11 43 6 72 72 NE 3 6 30.33 1027 10 16 N/A
10:55 pm 22:55 Clear 45 7 41 5 87 87 N N/A 30.36 1028 10 16 N/A
11:15 pm 23:15 Clear 46 8 43 6 87 87 N 3 6 30.33 1027 10 16 N/A
11:35 pm 23:35 Clear 45 7 43 6 93 93 N N/A 30.33 1027 10 16 N/A
11:55 pm 23:55 Clear 45 7 45 7 100 100 N 3 6 30.36 1028 10 16 N/A

Powered by AerisWeather